Tracking 21045 objects as of 4-Aug-2020
HD Live streaming from Space Station
objects crossing your sky now

RADUGA 17

Track RADUGA 17 now!
RADUGA 17 is classified as:


NORAD ID: 16250
Int'l Code: 1985-107A
Perigee: 35,783.7 km
Apogee: 35,879.7 km
Inclination: 13.1 °
Period: 1,438.0 minutes
Semi major axis: 42202 km
RCS: 3.981 m2 (large)
Launch date: November 15, 1985
Source: Commonwealth of Independent States (former USSR) (CIS)
Launch site: TYURATAM MISSILE AND SPACE COMPLEX (TTMTR)
aabbcc
Your satellite tracking list
Your tracking list is empty




NASA's NSSDC Master Catalog

Two Line Element Set (TLE):
1 16250U 85107A   20216.49861630 +.00000053 +00000-0 +00000-0 0  9991
2 16250 013.1181 335.3404 0011375 155.0940 229.6007 01.00136506130208
Source of the keplerian elements: AFSPC